Weather History for Salisbury, MD

Change the Weather History Date:

Friday, February 8, 2013

  Actual Average Record
Temperature  
Mean Temperature 45 °F 37 °F  
Max Temperature 49 °F 46 °F 72 °F (1925)
Min Temperature 40 °F 28 °F 6 °F (1936)
Degree Days  
Heating Degree Days 20 28  
Month to date heating degree days 236 231  
Since 1 July heating degree days 2300 2772  
Cooling Degree Days 0 0  
Month to date cooling degree days 0 0  
Year to date cooling degree days 0 0  
Moisture  
Dew Point 40 °F    
Average Humidity 75    
Maximum Humidity 93    
Minimum Humidity 57    
Precipitation  
Precipitation 1.73 in 0.12 in 2.00 in (1961)
Month to date precipitation 1.74 0.95  
Year to date precipitation 4.74 4.56  
Snow  
Snow 0.00 in 0.20 in 2.40 in (1974)
Month to date snowfall 0.0 1.2  
Since 1 July snowfall 2.8 6.2  
Snow Depth 0.00 in    
Sea Level Pressure  
Sea Level Pressure 29.78 in    
Wind  
Wind Speed 13 mph (NNW)    
Max Wind Speed 25 mph    
Max Gust Speed 36 mph    
Visibility 6 miles    
Events Rain    
T = Trace of Precipitation, MM = Missing Value Source: NWS Daily Summary

Daily Weather History Graph

Daily Weather History Graph

Search for Another Location

Airport:

Trip Planner

Search our weather history database for the weather conditions in past years. The results will help you decide how hot, cold, wet, or windy it might be!

Date:

Astronomy

Feb. 08, 2013 Rise Set
Actual Time 7:00 AM EST 5:32 PM EST
Civil Twilight 6:32 AM EST 6:00 PM EST
Nautical Twilight 6:01 AM EST 6:31 PM EST
Astronomical Twilight 5:30 AM EST 7:02 PM EST
Moon 5:26 AM EST (2/8) 4:03 PM EST (2/8)
Length of Visible Light 11h 27m
Length of Day
10h 32m
Waning Crescent, 3% of the Moon is Illuminated
Feb 8
Waning Crescent
Feb 10
New
Feb 17
First Quarter
Feb 25
Full
Mar 4
Last Quarter

Hourly Weather History & Observations

Time (EST) Temp. Windchill Dew Point Humidity Pressure Visibility Wind Dir Wind Speed Gust Speed Precip Events Conditions
12:54 AM 43.0 °F - 39.0 °F 86% 30.17 in 8.0 mi Calm Calm - 0.03 in Rain Light Rain
1:54 AM 43.0 °F 41.3 °F 39.9 °F 89% 30.14 in 7.0 mi ESE 3.5 mph - 0.02 in Rain Light Rain
2:08 AM 42.8 °F 41.1 °F 39.2 °F 87% 30.12 in 6.0 mi ESE 3.5 mph - 0.01 in Rain Light Rain
2:54 AM 43.0 °F - 39.9 °F 89% 30.09 in 3.0 mi Calm Calm - 0.06 in Rain Light Rain
3:54 AM 44.1 °F 41.5 °F 41.0 °F 89% 30.04 in 6.0 mi NNE 4.6 mph - 0.06 in Rain Light Rain
4:54 AM 44.1 °F 40.8 °F 41.0 °F 89% 30.00 in 5.0 mi NE 5.8 mph - 0.07 in Rain Light Rain
6:54 AM 45.0 °F 39.7 °F 41.0 °F 86% 29.92 in 6.0 mi North 10.4 mph - 0.09 in Rain Light Rain
7:12 AM 44.6 °F 40.2 °F 42.8 °F 93% 29.90 in 5.0 mi NNE 8.1 mph - 0.03 in Rain Light Rain
7:51 AM 44.6 °F 40.2 °F 42.8 °F 93% 29.87 in 4.0 mi North 8.1 mph - 0.14 in Rain Rain
7:54 AM 46.0 °F 41.9 °F 42.1 °F 86% 29.87 in 4.0 mi NNE 8.1 mph - 0.15 in Rain Rain
8:15 AM 46.4 °F 41.1 °F 42.8 °F 87% 29.85 in 2.5 mi NNE 11.5 mph - 0.06 in Rain Rain
8:29 AM 46.4 °F 41.5 °F 42.8 °F 87% 29.83 in 3.0 mi NNE 10.4 mph - 0.09 in Rain Light Rain
8:49 AM 46.4 °F 40.7 °F 44.6 °F 93% 29.81 in 2.0 mi NNE 12.7 mph - 0.17 in Rain Heavy Rain
8:54 AM 46.9 °F - 44.1 °F 90% 29.81 in 2.5 mi NNE 11.5 mph - 0.19 in Rain Rain
9:09 AM 48.2 °F - 44.6 °F 87% 29.78 in 3.0 mi NNE 15.0 mph - 0.05 in Rain Rain
9:54 AM 48.9 °F - 45.0 °F 86% 29.74 in 6.0 mi NNE 16.1 mph 29.9 mph 0.14 in Rain Light Rain
10:54 AM 48.9 °F - 45.0 °F 86% 29.70 in 2.5 mi NNE 19.6 mph 28.8 mph 0.19 in Rain Rain
11:38 AM 48.2 °F - 44.6 °F 87% 29.65 in 4.0 mi North 12.7 mph 21.9 mph 0.24 in Rain Rain
11:54 AM 48.9 °F - 45.0 °F 86% 29.65 in 3.0 mi North 16.1 mph 23.0 mph 0.30 in Rain Rain
12:35 PM 48.2 °F - 44.6 °F 87% 29.62 in 2.5 mi North 12.7 mph - 0.19 in Rain Rain
12:54 PM 48.0 °F - 44.1 °F 86% 29.62 in 4.0 mi North 13.8 mph 19.6 mph 0.26 in Rain Rain
1:54 PM 46.9 °F - 42.1 °F 83% 29.62 in 9.0 mi NW 26.5 mph 32.2 mph 0.09 in   Overcast
2:09 PM 44.6 °F 36.1 °F 39.2 °F 81% 29.61 in 2.0 mi NNW 21.9 mph 31.1 mph 0.00 in Rain Light Rain
2:17 PM 44.6 °F 36.6 °F 39.2 °F 81% 29.60 in 1.8 mi NNW 19.6 mph 29.9 mph 0.00 in Rain Light Rain
2:38 PM 44.6 °F 37.2 °F 39.2 °F 81% 29.61 in 2.0 mi NW 17.3 mph 27.6 mph 0.00 in   Overcast
2:54 PM 44.1 °F 36.2 °F 39.9 °F 85% 29.63 in 2.5 mi NNW 18.4 mph 28.8 mph 0.00 in   Overcast
3:04 PM 42.8 °F 34.8 °F 39.2 °F 87% 29.63 in 3.0 mi NW 17.3 mph 27.6 mph N/A   Overcast
3:20 PM 42.8 °F 34.0 °F 39.2 °F 87% 29.63 in 2.5 mi NNW 20.7 mph 34.5 mph 0.00 in Rain Light Rain
3:27 PM 42.8 °F 34.0 °F 39.2 °F 87% 29.63 in 3.0 mi NNW 20.7 mph 27.6 mph 0.00 in Rain Light Rain
3:39 PM 42.8 °F 34.5 °F 39.2 °F 87% 29.63 in 2.0 mi NNW 18.4 mph 25.3 mph 0.00 in   Overcast
3:54 PM 43.0 °F 35.1 °F 39.0 °F 86% 29.63 in 4.0 mi NNW 17.3 mph 29.9 mph 0.00 in   Overcast
4:54 PM 42.1 °F 33.6 °F 37.9 °F 85% 29.68 in 10.0 mi WNW 18.4 mph 25.3 mph N/A   Overcast
5:54 PM 42.1 °F 34.2 °F 37.0 °F 82% 29.70 in 8.0 mi WNW 16.1 mph 24.2 mph 0.00 in   Overcast
6:52 PM 41.0 °F 34.3 °F 35.6 °F 81% 29.72 in 10.0 mi WNW 11.5 mph - 0.01 in   Overcast
6:54 PM 41.0 °F 33.9 °F 36.0 °F 82% 29.73 in 10.0 mi WNW 12.7 mph 19.6 mph 0.01 in   Overcast
7:27 PM 41.0 °F 33.5 °F 35.6 °F 81% 29.74 in 10.0 mi WNW 13.8 mph 23.0 mph N/A   Overcast
7:54 PM 41.0 °F 33.9 °F 36.0 °F 82% 29.76 in 10.0 mi WNW 12.7 mph 19.6 mph N/A   Overcast
8:01 PM 41.0 °F 33.9 °F 35.6 °F 81% 29.75 in 10.0 mi NW 12.7 mph 20.7 mph N/A   Overcast
8:54 PM 41.0 °F 33.5 °F 36.0 °F 82% 29.77 in 10.0 mi WNW 13.8 mph 18.4 mph N/A   Overcast
9:10 PM 42.8 °F 36.2 °F 35.6 °F 76% 29.77 in 9.0 mi WNW 12.7 mph 21.9 mph N/A   Overcast
9:38 PM 42.8 °F 35.4 °F 35.6 °F 76% 29.77 in 10.0 mi WNW 15.0 mph 23.0 mph N/A   Overcast
9:54 PM 42.1 °F 34.2 °F 34.0 °F 73% 29.78 in 10.0 mi WNW 16.1 mph 23.0 mph N/A   Overcast
10:54 PM 42.1 °F 33.1 °F 28.9 °F 60% 29.80 in 10.0 mi WNW 20.7 mph 35.7 mph N/A   Overcast
11:54 PM 39.9 °F 31.8 °F 27.0 °F 60% 29.83 in 10.0 mi WNW 15.0 mph 27.6 mph N/A   Overcast